User: anonymous   Login
Location: Bosmont
(49.7318°N, 3.8587°E)
Time: 21:42:45
(UTC+00:00)
Language:

deb S5M - Orbit

View from above orbital plane
View from above orbital plane
View from above satellite
View from above satellite

Ground track
Ground track

The orbit data is extracted from the following two-line orbital elements,

1 25226U 87068BD  24056.77975249  .00007627  00000-0  43931-2 0  9997
2 25226  82.5240 160.0561 0072405 150.1795 210.3535 14.07715045318987
Epoch (UTC): 25 February 2024 18:42:50
Eccentricity: 0.0072405
inclination: 82.5240°
perigee height: 815 km
apogee height: 919 km
right ascension of ascending node: 160.0561°
argument of perigee: 150.1795°
revolutions per day: 14.07715045
mean anomaly at epoch: 210.3535°
orbit number at epoch: 31898

The dashed part of the orbit path shows where the satellite is in the earth's shadow,  

DLR